Aitkin, MN

8:50 PM CST on February 19, 2018 (GMT -0600)
Aitkin Municipal / Steve Kurtz Field

Weather History for KAIT - December, 2012

Change the Weather History Date:

Thursday, December 27, 2012

  Actual Average Record
Temperature  
Mean Temperature 12 °F -  
Max Temperature 21 °F 20 °F 42 °F (2013)
Min Temperature 3 °F -2 °F -32 °F (1983)
Degree Days  
Heating Degree Days 53    
Moisture  
Dew Point 6 °F    
Average Humidity 74    
Maximum Humidity 79    
Minimum Humidity 63    
Precipitation  
Precipitation 0.00 in - - ()
Sea Level Pressure  
Sea Level Pressure 30.18 in    
Wind  
Wind Speed 0 mph (SSE)    
Max Wind Speed 6 mph    
Max Gust Speed -    
Visibility 8 miles    
Events Snow    
Averages and records for this station are not official NWS values.
T = Trace of Precipitation, MM = Missing Value Source: NWS Daily Summary

Daily Weather History Graph

Daily Weather History Graph

Search for Another Location

Airport or City:

Trip Planner

Search our weather history database for the weather conditions in past years. The results will help you decide how hot, cold, wet, or windy it might be!

Date:

Astronomy

Dec. 27, 2012 Rise Set
Actual Time 7:58 AM CST 4:34 PM CST
Civil Twilight 7:23 AM CST 5:09 PM CST
Nautical Twilight 6:44 AM CST 5:47 PM CST
Astronomical Twilight 6:08 AM CST 6:24 PM CST
Moon 4:20 PM CST (12/27) 7:07 AM CST (12/27)
Length of Visible Light 9h 45m
Length of Day
8h 35m
Full, 100% of the Moon is Illuminated
Dec 27
Full
Dec 28
Full
Jan 4
Last Quarter
Jan 11
New
Jan 18
First Quarter

Hourly Weather History & Observations

Time (CST) Temp. Windchill Dew Point Humidity Pressure Visibility Wind Dir Wind Speed Gust Speed Precip Events Conditions
12:13 AM 5.0 °F - -2.2 °F 72% 30.21 in 10.0 mi Calm Calm - N/A   Overcast
12:32 AM 6.8 °F - -0.4 °F 72% 30.21 in 10.0 mi Calm Calm - N/A   Overcast
12:53 AM 6.8 °F - -0.4 °F 72% 30.21 in 10.0 mi Calm Calm - N/A   Unknown
1:13 AM 6.8 °F - -0.4 °F 72% 30.21 in 10.0 mi Calm Calm - N/A   Unknown
1:32 AM 6.8 °F - -0.4 °F 72% 30.22 in 10.0 mi Calm Calm - N/A   Overcast
1:53 AM 5.0 °F - -0.4 °F 78% 30.22 in 10.0 mi Calm Calm - N/A   Overcast
2:12 AM 5.0 °F - -0.4 °F 78% 30.23 in 10.0 mi Calm Calm - N/A   Overcast
2:32 AM 5.0 °F - -2.2 °F 72% 30.23 in 10.0 mi Calm Calm - N/A   Overcast
2:53 AM 5.0 °F - -0.4 °F 78% 30.23 in 10.0 mi Calm Calm - N/A   Overcast
3:12 AM 6.8 °F - -0.4 °F 72% 30.23 in 10.0 mi Calm Calm - N/A   Overcast
3:32 AM 6.8 °F - -0.4 °F 72% 30.23 in 10.0 mi Calm Calm - N/A   Overcast
3:53 AM 6.8 °F - 1.4 °F 79% 30.22 in 10.0 mi Calm Calm - N/A   Overcast
4:32 AM 6.8 °F - -0.4 °F 72% 30.22 in 10.0 mi Calm Calm - N/A   Overcast
4:53 AM 6.8 °F - -0.4 °F 72% 30.21 in 10.0 mi Calm Calm - N/A   Overcast
5:12 AM 6.8 °F - -0.4 °F 72% 30.21 in 10.0 mi Calm Calm - N/A   Overcast
5:53 AM 5.0 °F - -2.2 °F 72% 30.21 in 10.0 mi Calm Calm - N/A   Mostly Cloudy
6:12 AM 3.2 °F - -2.2 °F 78% 30.21 in 10.0 mi Calm Calm - N/A   Scattered Clouds
6:32 AM 3.2 °F - -4.0 °F 72% 30.21 in 10.0 mi Calm Calm - N/A   Clear
6:53 AM 3.2 °F - -4.0 °F 72% 30.22 in 10.0 mi Calm Calm - N/A   Clear
7:32 AM 3.2 °F - -2.2 °F 78% 30.21 in 10.0 mi Calm Calm - N/A   Scattered Clouds
7:53 AM 5.0 °F - -2.2 °F 72% 30.20 in 10.0 mi Calm Calm - N/A   Mostly Cloudy
8:12 AM 6.8 °F - -0.4 °F 72% 30.20 in 10.0 mi Calm Calm - N/A   Overcast
8:53 AM 6.8 °F - -0.4 °F 72% 30.21 in 10.0 mi Calm Calm - N/A   Overcast
9:12 AM 8.6 °F - 1.4 °F 73% 30.21 in 10.0 mi Calm Calm - N/A   Overcast
9:32 AM 8.6 °F - 1.4 °F 73% 30.21 in 10.0 mi Calm Calm - N/A   Mostly Cloudy
9:53 AM 8.6 °F - 3.2 °F 79% 30.22 in 10.0 mi Calm Calm - N/A   Overcast
10:12 AM 8.6 °F - 3.2 °F 79% 30.23 in 10.0 mi Calm Calm - N/A   Overcast
10:32 AM 10.4 °F - 3.2 °F 73% 30.22 in 10.0 mi Calm Calm - N/A   Overcast
10:53 AM 10.4 °F - 3.2 °F 73% 30.21 in 10.0 mi Calm Calm - N/A   Overcast
11:12 AM 12.2 °F - 5.0 °F 73% 30.21 in 10.0 mi Calm Calm - N/A   Overcast
11:33 AM 14.0 °F - 6.8 °F 73% 30.21 in 10.0 mi Calm Calm - N/A   Overcast
11:52 AM 14.0 °F - 6.8 °F 73% 30.19 in 10.0 mi Calm Calm - N/A   Overcast
12:12 PM 15.8 °F - 6.8 °F 68% 30.18 in 10.0 mi Calm Calm - N/A   Overcast
12:33 PM 15.8 °F - 8.6 °F 73% 30.17 in 10.0 mi Calm Calm - N/A   Overcast
12:52 PM 17.6 °F - 8.6 °F 68% 30.16 in 10.0 mi Calm Calm - N/A   Overcast
1:12 PM 17.6 °F - 8.6 °F 68% 30.16 in 10.0 mi Calm Calm - N/A   Overcast
1:33 PM 17.6 °F - 10.4 °F 73% 30.16 in 10.0 mi Calm Calm - N/A   Overcast
1:52 PM 19.4 °F - 10.4 °F 68% 30.16 in 10.0 mi Calm Calm - N/A   Overcast
2:12 PM 19.4 °F 11.5 °F 10.4 °F 68% 30.16 in 10.0 mi SE 5.8 mph - N/A   Overcast
2:33 PM 21.2 °F 13.6 °F 10.4 °F 63% 30.16 in 10.0 mi SSE 5.8 mph - N/A   Mostly Cloudy
2:52 PM 21.2 °F 14.9 °F 10.4 °F 63% 30.16 in 10.0 mi SSE 4.6 mph - N/A   Scattered Clouds
3:12 PM 21.2 °F 13.6 °F 10.4 °F 63% 30.17 in 10.0 mi South 5.8 mph - N/A   Scattered Clouds
3:33 PM 21.2 °F - 10.4 °F 63% 30.16 in 10.0 mi Calm Calm - N/A   Clear
3:52 PM 19.4 °F - 10.4 °F 68% 30.16 in 10.0 mi Calm Calm - N/A   Scattered Clouds
4:12 PM 19.4 °F - 10.4 °F 68% 30.15 in 10.0 mi Calm Calm - N/A   Unknown
4:33 PM 19.4 °F - 10.4 °F 68% 30.15 in 10.0 mi Calm Calm - N/A   Mostly Cloudy
4:52 PM 19.4 °F - 10.4 °F 68% 30.15 in 10.0 mi Calm Calm - N/A   Overcast
5:13 PM 19.4 °F - 10.4 °F 68% 30.15 in 10.0 mi Calm Calm - N/A   Overcast
5:32 PM 19.4 °F - 10.4 °F 68% 30.15 in 10.0 mi Calm Calm - N/A   Overcast
5:53 PM 17.6 °F - 10.4 °F 73% 30.15 in 7.0 mi Calm Calm - N/A Snow Light Snow
6:13 PM 17.6 °F - 12.2 °F 79% 30.15 in 2.5 mi Calm Calm - N/A Snow Light Snow
6:32 PM 17.6 °F - 12.2 °F 79% 30.15 in 3.0 mi Calm Calm - N/A Snow Light Snow
6:53 PM 17.6 °F - 12.2 °F 79% 30.15 in 2.5 mi Calm Calm - N/A Snow Light Snow
7:13 PM 17.6 °F - 12.2 °F 79% 30.15 in 2.5 mi Calm Calm - N/A Snow Light Snow
7:32 PM 17.6 °F - 12.2 °F 79% 30.15 in 2.5 mi Calm Calm - N/A Snow Light Snow
7:53 PM 17.6 °F - 12.2 °F 79% 30.15 in 2.5 mi Calm Calm - N/A Snow Light Snow
8:13 PM 17.6 °F - 12.2 °F 79% 30.15 in 3.0 mi Calm Calm - N/A Snow Light Snow
8:32 PM 17.6 °F - 12.2 °F 79% 30.14 in 4.0 mi Calm Calm - N/A Snow Light Snow
8:53 PM 17.6 °F - 12.2 °F 79% 30.14 in 2.0 mi Calm Calm - N/A Snow Light Snow
9:13 PM 17.6 °F - 12.2 °F 79% 30.14 in 5.0 mi Calm Calm - N/A Snow Light Snow
9:32 PM 17.6 °F - 12.2 °F 79% 30.14 in 5.0 mi Calm Calm - N/A Snow Light Snow
9:53 PM 17.6 °F - 12.2 °F 79% 30.13 in 4.0 mi Calm Calm - N/A Snow Light Snow
10:12 PM 17.6 °F - 12.2 °F 79% 30.13 in 2.5 mi Calm Calm - N/A Snow Light Snow
10:32 PM 17.6 °F - 12.2 °F 79% 30.13 in 3.0 mi Calm Calm - N/A Snow Light Snow
10:53 PM 17.6 °F - 12.2 °F 79% 30.13 in 4.0 mi Calm Calm - N/A Snow Light Snow
11:12 PM 15.8 °F - 10.4 °F 79% 30.13 in 2.0 mi Calm Calm - N/A Snow Light Snow
11:32 PM 15.8 °F - 10.4 °F 79% 30.13 in 3.0 mi Calm Calm - N/A Snow Light Snow
11:53 PM 15.8 °F - 10.4 °F 79% 30.13 in 2.5 mi Calm Calm - N/A Snow Light Snow